Location: Caltech
(34.1382°N, 118.1253°W)
Time: 20:30:59
(UTC-08:00)

Saudisat 1A - Visible Passes

Search period start: 24 February 2017 00:00
Search period end: 06 March 2017 00:00
Orbit: 569 x 623 km, 64.6° (Epoch: 24 February)

Date Brightness Start Highest point End Pass type
(mag) Time Alt. Az. Time Alt. Az. Time Alt. Az.
28 Feb 10.5 19:43:43 10° N 19:44:07 12° N 19:44:07 12° N visible
01 Mar 10.1 19:53:06 10° N 19:54:22 17° N 19:54:22 17° N visible
02 Mar 9.8 20:02:50 10° NNW 20:04:42 24° NNW 20:04:42 24° NNW visible
03 Mar 9.9 18:35:25 10° NNE 18:37:21 12° NE 18:38:28 12° ENE visible
03 Mar 9.7 20:12:50 10° NW 20:15:10 30° NW 20:15:10 30° NW visible
04 Mar 9.4 18:44:14 10° N 18:47:39 21° NE 18:49:03 18° ENE visible
04 Mar 10.0 20:23:10 10° NW 20:25:46 27° WNW 20:25:46 27° WNW visible
05 Mar 8.6 18:53:43 10° NNW 18:57:51 37° NE 18:59:49 24° ESE visible
05 Mar 10.6 20:34:05 10° WNW 20:36:33 17° WSW 20:36:33 17° WSW visible
